DELTA 1 DEB *, 8791

Orbit data source: Space-Track

DELTA 1 DEB *, 8791 is space debris in SSO originally from a launch on Sun, 02 Oct 1966 UTC launched from the Air Force Western Test Range (AFWTR). Debris objects in space refer to the collection of defunct objects orbiting the Earth. Examples of debris include non-operational satellites, rocket bodies, and fragments generated from explosions, collisions, or faulty payload assembly.

Loading next visibility...
DELTA 1 DEB * details
Identifier
8791, 1966-087F
Orbit
SSO
Last TLE update1 day ago
Origin
Flag of USGSFC (US)
ManufacturerUnknown
MissionSpacecraft
Bus & MotorUnknown
MassUnknown
Launch date (UTC)
1966-10-02 (58 years ago)
Launch vehicleUnknown
Launch site
Air Force Western Test Range (AFWTR)
Object type
Payload
Rocket body
Debris
Shape & HBRUnknown
Radar Cross SectionSmall (<0.1 m²)

Expand to show TLE details & history

TLE from 1 day ago
0 DELTA 1 DEB *
1 08791U 66087F   24355.85826515  .00000254  00000-0  15830-2 0  9991
2 08791 101.5884 326.4313 0140085 195.5144 194.6487 12.63616046675779
Epoch: 2024-12-20T20:35Z
Definitive object data (Epoch: 2024-12-20T20:35:54.108Z)
Latitude29.14324°
Longitude-78.99522°
Altitude1,517.045 km
Speed7.061 km/s
True Right ascension21h 19m 35s
True Declination29° 00' 41"
Sunlit
Object was in daylight at TLE epoch
Visualization TLE readout
Latitude-70.86392°
Longitude72.90799°
Altitude1,381.475 km
Speed7.193 km/s
Apparent Right ascension15h 20m 09s
Apparent Declination-74° 32' 33"
Sunlit
Object is in daylight
Visualization observer readout
Local Sidereal Time05:09:20
Azimuth168.243° S
Elevation-53.141°
Doppler factor1
Orbital elements
Apogee altitude1,514.612 km
Perigee altitude1,296.535 km
Semi-major axis7,783.71 km
Eccentricity0.0140085
Inclination101.5884°
RAAN326.4313°
Arg. of periapsis195.5144°
True anomaly194.24951°
Mean anomaly194.6487°
Eccentric anomaly194.44844°
Mean motion3.16055 °/min
BSTAR0.001583
Orbital period113.9 mins
Loading maneuver chart data...
Loading historical data...
Loading historical data...
Loading historical data...
Loading historical data...
Loading historical data...
Loading historical data...
Loading historical data...

DELTA 1 DEB * Visibility forecast

Observer location: undefined°, undefined

Span
Click to sort rows by Start time (UTC) header in descending order
Start Az.
Max El. time (UTC)
Max El. Az.
Max El.
End time (UTC)
End Az.
14 mins2024-12-22 11:04:38.768Z21.947° NNE2024-12-22 11:11:38.768Z132.568° SE43.671°2024-12-22 11:18:38.768Z190.995° SSW
10 mins2024-12-22 12:57:38.768Z347.792° N2024-12-22 13:02:38.768Z302.011° NW22.354°2024-12-22 13:07:38.768Z258.596° W
10 mins2024-12-22 20:08:38.768Z88° E2024-12-22 20:12:38.768Z56.189° ENE19.755°2024-12-22 20:18:38.768Z9.391° NNE
15 mins2024-12-22 21:56:38.768Z158.446° S2024-12-22 22:03:38.768Z115.653° SE44.909°2024-12-22 22:11:38.768Z343.735° N
9 mins2024-12-22 23:52:38.768Z236.671° WSW2024-12-22 23:56:38.768Z269.028° W18.461°2024-12-23 00:01:38.768Z307.465° NW
|